{"data":{"norad_id":64578,"intl_designator":"2025-135BC","name":"ICEYE-X57","alt_names":[],"object_type":"PAYLOAD","status":"ACTIVE","operator":null,"country":"US","launch_date":"2025-06-23","launch_site_code":"AFWTR","launch_vehicle":null,"mission":null,"orbit_class":"UNKNOWN","rcs_meters":null,"size_class":null,"mass_kg":null,"dimensions":null,"purposes":[],"wikipedia_slug":null,"has_3d_model":false,"image_url":null,"decayed_at":null,"tle_current":{"epoch":"2026-09-21T22:31:10.556832Z","epoch_age_seconds":53416,"freshness":"FRESH","line1":"1 64578U 25135BC  26264.93831663  .00002956  00000+0  23730-3 0  9994","line2":"2 64578  97.8212  21.8332 0001894  51.5754 308.5639 15.00851174 68537","mean_motion":15.00851174,"eccentricity":0.0001894,"inclination_deg":97.8212,"raan_deg":21.8332,"arg_perigee_deg":51.5754,"mean_anomaly_deg":308.5639,"bstar":0.0002373,"rev_number":6853,"period_min":95.945555758349,"perigee_km":562.95539244398,"apogee_km":565.5851763233,"semimajor_km":6942.4072843836,"source":"CELESTRAK","updated_at":"2026-09-22T09:00:29.852909Z"}}}